Time,TemperatureF,DewpointF,PressureIn,WindDirection,WindDirectionDegrees,WindSpeedMPH,WindSpeedGustMPH,Humidity,HourlyPrecipIn,Conditions,Clouds,dailyrainin,SoftwareType,DateUTC
2013-02-02 00:03:00,19.9,9.8,30.09,WNW,292,1.6,-999.0,64,-99.99,,,0.00,Acu-Link.com,2013-02-02 05:03:00,
2013-02-02 00:18:00,20.7,11.8,30.09,WNW,292,0.0,-999.0,68,-99.99,,,0.00,Acu-Link.com,2013-02-02 05:18:00,
2013-02-02 00:33:00,20.3,12.1,30.09,ESE,112,0.0,-999.0,70,-99.99,,,0.00,Acu-Link.com,2013-02-02 05:33:00,
2013-02-02 00:48:00,19.6,11.7,30.09,WSW,247,1.6,-999.0,71,-99.99,,,0.00,Acu-Link.com,2013-02-02 05:48:00,
2013-02-02 01:04:00,19.6,12.4,30.08,WNW,292,0.0,-999.0,73,-99.99,,,0.00,Acu-Link.com,2013-02-02 06:04:00,
2013-02-02 01:19:00,19.0,13.0,30.08,WSW,247,2.2,-999.0,77,-99.99,,,0.00,Acu-Link.com,2013-02-02 06:19:00,
2013-02-02 01:34:00,19.6,13.3,30.08,SE,135,0.0,-999.0,76,-99.99,,,0.00,Acu-Link.com,2013-02-02 06:34:00,
2013-02-02 01:49:00,19.9,14.2,30.06,ESE,112,0.0,-999.0,78,-99.99,,,0.00,Acu-Link.com,2013-02-02 06:49:00,
2013-02-02 02:04:00,19.8,13.7,30.06,SE,135,0.0,-999.0,77,-99.99,,,0.00,Acu-Link.com,2013-02-02 07:04:00,
2013-02-02 02:20:00,19.0,12.7,30.06,SW,225,0.0,-999.0,76,-99.99,,,0.00,Acu-Link.com,2013-02-02 07:20:00,
2013-02-02 02:35:00,19.0,13.0,30.06,SW,225,0.0,-999.0,77,-99.99,,,0.00,Acu-Link.com,2013-02-02 07:35:00,
2013-02-02 02:50:00,18.9,14.0,30.06,SW,225,0.0,-999.0,81,-99.99,,,0.00,Acu-Link.com,2013-02-02 07:50:00,
2013-02-02 03:05:00,19.0,14.2,30.06,SSW,202,0.0,-999.0,81,-99.99,,,0.00,Acu-Link.com,2013-02-02 08:05:00,
2013-02-02 03:21:00,18.9,13.7,30.05,SW,225,0.0,-999.0,80,-99.99,,,0.00,Acu-Link.com,2013-02-02 08:21:00,
2013-02-02 03:36:00,19.0,14.5,30.05,SSE,157,0.0,-999.0,82,-99.99,,,0.00,Acu-Link.com,2013-02-02 08:36:00,
2013-02-02 03:51:00,18.5,14.8,30.04,North,0,0.0,-999.0,85,-99.99,,,0.00,Acu-Link.com,2013-02-02 08:51:00,
2013-02-02 04:16:00,18.7,14.9,30.04,North,0,0.0,-999.0,85,-99.99,,,0.00,Acu-Link.com,2013-02-02 09:16:00,
2013-02-02 04:31:00,18.7,15.2,30.04,North,0,0.0,-999.0,86,-99.99,,,0.00,Acu-Link.com,2013-02-02 09:31:00,
2013-02-02 04:46:00,17.8,13.2,30.04,West,270,0.0,-999.0,82,-99.99,,,0.00,Acu-Link.com,2013-02-02 09:46:00,
2013-02-02 05:01:00,18.1,14.4,30.05,West,270,0.0,-999.0,85,-99.99,,,0.00,Acu-Link.com,2013-02-02 10:01:00,
2013-02-02 05:16:00,18.3,14.6,30.04,SSW,202,0.0,-999.0,85,-99.99,,,0.00,Acu-Link.com,2013-02-02 10:16:00,
2013-02-02 05:32:00,18.1,14.7,30.04,SW,225,0.0,-999.0,86,-99.99,,,0.00,Acu-Link.com,2013-02-02 10:32:00,
2013-02-02 05:47:00,17.8,13.5,30.04,North,0,0.0,-999.0,83,-99.99,,,0.00,Acu-Link.com,2013-02-02 10:47:00,
2013-02-02 06:02:00,18.3,14.3,30.04,North,0,0.0,-999.0,84,-99.99,,,0.00,Acu-Link.com,2013-02-02 11:02:00,
2013-02-02 06:17:00,18.1,14.7,30.05,North,0,0.0,-999.0,86,-99.99,,,0.00,Acu-Link.com,2013-02-02 11:17:00,
2013-02-02 06:33:00,18.3,15.1,30.05,North,0,0.0,-999.0,87,-99.99,,,0.00,Acu-Link.com,2013-02-02 11:33:00,
2013-02-02 06:48:00,18.5,14.8,30.05,North,0,0.0,-999.0,85,-99.99,,,0.00,Acu-Link.com,2013-02-02 11:48:00,
2013-02-02 07:03:00,18.3,14.0,30.05,North,0,0.0,-999.0,83,-99.99,,,0.00,Acu-Link.com,2013-02-02 12:03:00,
2013-02-02 07:18:00,18.3,14.6,30.05,SSE,157,0.0,-999.0,85,-99.99,,,0.00,Acu-Link.com,2013-02-02 12:18:00,
2013-02-02 07:33:00,18.0,14.5,30.05,SSW,202,0.0,-999.0,86,-99.99,,,0.00,Acu-Link.com,2013-02-02 12:33:00,
2013-02-02 07:49:00,17.6,13.9,30.04,SSE,157,0.0,-999.0,85,-99.99,,,0.00,Acu-Link.com,2013-02-02 12:49:00,
2013-02-02 08:04:00,18.3,14.3,30.05,SSE,157,0.0,-999.0,84,-99.99,,,0.00,Acu-Link.com,2013-02-02 13:04:00,
2013-02-02 08:19:00,19.9,15.6,30.04,SSE,157,0.0,-999.0,83,-99.99,,,0.00,Acu-Link.com,2013-02-02 13:19:00,
2013-02-02 08:34:00,22.3,16.8,30.04,NE,45,0.0,-999.0,79,-99.99,,,0.00,Acu-Link.com,2013-02-02 13:34:00,
2013-02-02 08:49:00,26.1,14.1,30.04,East,90,0.0,-999.0,60,-99.99,,,0.00,Acu-Link.com,2013-02-02 13:49:00,
2013-02-02 09:05:00,27.3,13.3,30.04,SSE,157,0.0,-999.0,55,-99.99,,,0.00,Acu-Link.com,2013-02-02 14:05:00,
2013-02-02 09:20:00,29.7,9.4,30.03,East,90,0.0,-999.0,42,-99.99,,,0.00,Acu-Link.com,2013-02-02 14:20:00,
2013-02-02 09:35:00,29.1,7.8,30.03,ESE,112,0.0,-999.0,40,-99.99,,,0.00,Acu-Link.com,2013-02-02 14:35:00,
2013-02-02 09:50:00,30.6,8.0,30.02,WNW,292,0.0,-999.0,38,-99.99,,,0.00,Acu-Link.com,2013-02-02 14:50:00,
2013-02-02 10:05:00,32.2,9.5,30.01,ENE,67,2.7,-999.0,38,-99.99,,,0.00,Acu-Link.com,2013-02-02 15:05:00,
2013-02-02 10:21:00,34.0,8.6,30.01,ENE,67,2.7,-999.0,34,-99.99,,,0.00,Acu-Link.com,2013-02-02 15:21:00,
2013-02-02 10:36:00,34.7,9.9,30.01,ENE,67,2.2,-999.0,35,-99.99,,,0.00,Acu-Link.com,2013-02-02 15:36:00,
2013-02-02 10:51:00,35.4,13.0,30.01,ENE,67,3.1,-999.0,39,-99.99,,,0.00,Acu-Link.com,2013-02-02 15:51:00,
2013-02-02 11:06:00,35.6,13.1,30.02,ESE,112,2.2,-999.0,39,-99.99,,,0.00,Acu-Link.com,2013-02-02 16:06:00,
2013-02-02 11:22:00,37.0,11.3,30.04,NW,315,4.3,-999.0,34,-99.99,,,0.00,Acu-Link.com,2013-02-02 16:22:00,
2013-02-02 11:37:00,38.5,10.5,30.04,NNW,337,4.3,-999.0,31,-99.99,,,0.00,Acu-Link.com,2013-02-02 16:37:00,
2013-02-02 11:52:00,37.6,10.4,30.05,ENE,67,3.1,-999.0,32,-99.99,,,0.00,Acu-Link.com,2013-02-02 16:52:00,
2013-02-02 12:07:00,35.2,18.5,30.04,East,90,3.8,-999.0,50,-99.99,,,0.00,Acu-Link.com,2013-02-02 17:07:00,
2013-02-02 12:22:00,32.2,24.8,30.04,NNE,22,1.6,-999.0,74,-99.99,,,0.00,Acu-Link.com,2013-02-02 17:22:00,
2013-02-02 12:38:00,31.6,27.9,30.02,NNE,22,1.6,-999.0,86,-99.99,,,0.00,Acu-Link.com,2013-02-02 17:38:00,
2013-02-02 12:53:00,30.0,26.6,30.00,NE,45,3.1,-999.0,87,-99.99,,,0.00,Acu-Link.com,2013-02-02 17:53:00,
2013-02-02 13:08:00,29.1,26.8,29.99,West,270,0.0,-999.0,91,-99.99,,,0.00,Acu-Link.com,2013-02-02 18:08:00,
2013-02-02 13:23:00,29.1,27.1,29.97,South,180,4.3,-999.0,92,-99.99,,,0.00,Acu-Link.com,2013-02-02 18:23:00,
2013-02-02 13:38:00,28.4,26.4,29.96,West,270,2.2,-999.0,92,-99.99,,,0.00,Acu-Link.com,2013-02-02 18:38:00,
2013-02-02 13:54:00,28.4,26.1,29.94,East,90,2.7,-999.0,91,-99.99,,,0.00,Acu-Link.com,2013-02-02 18:54:00,
2013-02-02 14:09:00,28.6,26.6,29.94,SE,135,1.6,-999.0,92,-99.99,,,0.00,Acu-Link.com,2013-02-02 19:09:00,
2013-02-02 14:24:00,28.6,26.6,29.93,SW,225,1.6,-999.0,92,-99.99,,,0.00,Acu-Link.com,2013-02-02 19:24:00,
2013-02-02 14:39:00,30.0,27.4,29.91,NE,45,2.2,-999.0,90,-99.99,,,0.00,Acu-Link.com,2013-02-02 19:39:00,
2013-02-02 14:54:00,29.7,27.4,29.90,NE,45,2.2,-999.0,91,-99.99,,,0.00,Acu-Link.com,2013-02-02 19:54:00,
2013-02-02 15:10:00,29.7,27.9,29.90,West,270,1.1,-999.0,93,-99.99,,,0.00,Acu-Link.com,2013-02-02 20:10:00,
2013-02-02 15:25:00,30.0,28.2,29.89,NW,315,1.6,-999.0,93,-99.99,,,0.00,Acu-Link.com,2013-02-02 20:25:00,
2013-02-02 15:40:00,30.4,29.1,29.88,WNW,292,2.2,-999.0,95,-99.99,,,0.00,Acu-Link.com,2013-02-02 20:40:00,
2013-02-02 15:55:00,31.5,30.7,29.87,SW,225,1.6,-999.0,97,-99.99,,,0.00,Acu-Link.com,2013-02-02 20:55:00,
2013-02-02 16:10:00,31.8,31.1,29.87,West,270,2.2,-999.0,97,-99.99,,,0.00,Acu-Link.com,2013-02-02 21:10:00,
2013-02-02 16:26:00,32.0,31.2,29.86,West,270,1.6,-999.0,97,-99.99,,,0.00,Acu-Link.com,2013-02-02 21:26:00,
2013-02-02 16:41:00,32.0,31.2,29.86,West,270,1.6,-999.0,97,-99.99,,,0.00,Acu-Link.com,2013-02-02 21:41:00,
2013-02-02 16:56:00,31.8,31.1,29.85,WNW,292,0.0,-999.0,97,-99.99,,,0.00,Acu-Link.com,2013-02-02 21:56:00,
2013-02-02 17:11:00,31.6,30.9,29.85,East,90,2.7,-999.0,97,-99.99,,,0.00,Acu-Link.com,2013-02-02 22:11:00,
2013-02-02 17:27:00,31.5,30.7,29.87,NNW,337,1.6,-999.0,97,-99.99,,,0.00,Acu-Link.com,2013-02-02 22:27:00,
2013-02-02 17:42:00,31.5,30.7,29.87,NNE,22,2.2,-999.0,97,-99.99,,,0.00,Acu-Link.com,2013-02-02 22:42:00,
2013-02-02 17:57:00,31.5,30.7,29.86,WNW,292,1.1,-999.0,97,-99.99,,,0.00,Acu-Link.com,2013-02-02 22:57:00,
2013-02-02 18:12:00,31.5,31.0,29.86,NW,315,0.0,-999.0,98,-99.99,,,0.00,Acu-Link.com,2013-02-02 23:12:00,
2013-02-02 18:28:00,31.5,31.0,29.87,WSW,247,0.0,-999.0,98,-99.99,,,0.00,Acu-Link.com,2013-02-02 23:28:00,
2013-02-02 18:43:00,31.5,31.0,29.87,WNW,292,0.0,-999.0,98,-99.99,,,0.00,Acu-Link.com,2013-02-02 23:43:00,
2013-02-02 18:58:00,31.6,31.1,29.87,NW,315,0.0,-999.0,98,-99.99,,,0.00,Acu-Link.com,2013-02-02 23:58:00,
2013-02-02 19:13:00,31.8,31.3,29.85,East,90,0.0,-999.0,98,-99.99,,,0.00,Acu-Link.com,2013-02-03 00:13:00,
2013-02-02 19:28:00,32.0,31.5,29.86,NW,315,0.0,-999.0,98,-99.99,,,0.00,Acu-Link.com,2013-02-03 00:28:00,
2013-02-02 19:44:00,32.0,31.8,29.87,West,270,0.0,-999.0,99,-99.99,,,0.00,Acu-Link.com,2013-02-03 00:44:00,
2013-02-02 19:59:00,32.4,32.1,29.87,ESE,112,0.0,-999.0,99,-99.99,,,0.00,Acu-Link.com,2013-02-03 00:59:00,
2013-02-02 20:14:00,32.4,31.9,29.87,East,90,0.0,-999.0,98,-99.99,,,0.00,Acu-Link.com,2013-02-03 01:14:00,
2013-02-02 20:29:00,32.4,31.9,29.87,NNW,337,0.0,-999.0,98,-99.99,,,0.00,Acu-Link.com,2013-02-03 01:29:00,
2013-02-02 20:44:00,32.5,32.0,29.87,North,0,0.0,-999.0,98,-99.99,,,0.00,Acu-Link.com,2013-02-03 01:44:00,
2013-02-02 21:00:00,32.5,32.0,29.87,SSW,202,0.0,-999.0,98,-99.99,,,0.00,Acu-Link.com,2013-02-03 02:00:00,
2013-02-02 21:15:00,32.7,32.5,29.87,NE,45,0.0,-999.0,99,-99.99,,,0.00,Acu-Link.com,2013-02-03 02:15:00,
2013-02-02 21:30:00,32.5,32.3,29.86,East,90,0.0,-999.0,99,-99.99,,,0.00,Acu-Link.com,2013-02-03 02:30:00,
2013-02-02 21:45:00,32.4,32.1,29.87,West,270,0.0,-999.0,99,-99.99,,,0.00,Acu-Link.com,2013-02-03 02:45:00,
2013-02-02 22:00:00,32.9,32.4,29.86,NNE,22,0.0,-999.0,98,-99.99,,,0.00,Acu-Link.com,2013-02-03 03:00:00,
2013-02-02 22:16:00,33.1,32.3,29.87,West,270,0.0,-999.0,97,-99.99,,,0.00,Acu-Link.com,2013-02-03 03:16:00,
2013-02-02 22:31:00,33.1,32.1,29.85,ESE,112,0.0,-999.0,96,-99.99,,,0.00,Acu-Link.com,2013-02-03 03:31:00,
2013-02-02 22:46:00,33.3,32.0,29.86,SE,135,0.0,-999.0,95,-99.99,,,0.00,Acu-Link.com,2013-02-03 03:46:00,
2013-02-02 23:01:00,33.8,32.0,29.86,North,0,0.0,-999.0,93,-99.99,,,0.00,Acu-Link.com,2013-02-03 04:01:00,
2013-02-02 23:17:00,34.0,32.2,29.85,WNW,292,5.1,-999.0,93,-99.99,,,0.00,Acu-Link.com,2013-02-03 04:17:00,
2013-02-02 23:32:00,33.6,32.1,29.85,West,270,2.2,-999.0,94,-99.99,,,0.00,Acu-Link.com,2013-02-03 04:32:00,
2013-02-02 23:47:00,33.4,31.6,29.85,ESE,112,2.2,-999.0,93,-99.99,,,0.00,Acu-Link.com,2013-02-03 04:47:00,